EWG755 LOWW-EDDH

Flight info

Callsign EWG755
Flight time 1h 6m
Altitude 36000
Route LANUX2C/29 LANUX DCT VLM DCT HDO DCT OSKAN M748 BOLBO DCT ESIKA DCT SOGMA M748 RARUP RARUP3P
Aircraft A20N/M-SDE2E3FGHIRWXY/LB1

Departure

Time 2026-04-22 18:40
Airport Vienna International Airport (LOWW)

Arrival

Time 2026-04-22 19:46
Airport Hamburg Helmut Schmidt Airport (EDDH)
Time Latitude Longitude Altitude Speed Heading
2026-04-22 18:23 48.11862 16.56876 608 ft 0 kts 206°
2026-04-22 18:27 48.11881 16.56890 617 ft 4 kts 201°
2026-04-22 18:27 48.11907 16.56901 611 ft 4 kts 186°
2026-04-22 18:27 48.11932 16.56898 613 ft 4 kts 138°
2026-04-22 18:27 48.11939 16.56885 624 ft 1 kts 116°
2026-04-22 18:28 48.11939 16.56884 624 ft 0 kts 116°
2026-04-22 18:33 48.11935 16.56896 624 ft 3 kts 117°
2026-04-22 18:33 48.11913 16.56963 622 ft 11 kts 116°
2026-04-22 18:33 48.11872 16.57090 616 ft 16 kts 116°
2026-04-22 18:33 48.11846 16.57240 620 ft 16 kts 105°
2026-04-22 18:34 48.11797 16.57348 616 ft 14 kts 151°
2026-04-22 18:34 48.11691 16.57395 615 ft 16 kts 163°
2026-04-22 18:34 48.11576 16.57443 615 ft 17 kts 164°
2026-04-22 18:34 48.11454 16.57432 624 ft 20 kts 205°
2026-04-22 18:35 48.11353 16.57359 613 ft 10 kts 205°
2026-04-22 18:35 48.11301 16.57325 616 ft 0 kts 203°
2026-04-22 18:35 48.11282 16.57311 620 ft 7 kts 205°
2026-04-22 18:35 48.11244 16.57282 617 ft 0 kts 207°
2026-04-22 18:36 48.11229 16.57271 621 ft 5 kts 207°
2026-04-22 18:36 48.11201 16.57250 612 ft 5 kts 206°
2026-04-22 18:36 48.11181 16.57236 619 ft 5 kts 206°
2026-04-22 18:36 48.11167 16.57226 622 ft 1 kts 206°
2026-04-22 18:37 48.11126 16.57196 621 ft 11 kts 205°
2026-04-22 18:37 48.11064 16.57137 618 ft 9 kts 243°
2026-04-22 18:37 48.11067 16.57068 613 ft 10 kts 289°
2026-04-22 18:37 48.11076 16.57041 609 ft 0 kts 294°
2026-04-22 18:39 48.11129 16.56875 617 ft 51 kts 296°
2026-04-22 18:39 48.11385 16.56088 609 ft 113 kts 296°
2026-04-22 18:40 48.11801 16.54804 627 ft 157 kts 297°
2026-04-22 18:40 48.12243 16.53353 1295 ft 147 kts 291°
2026-04-22 18:40 48.12324 16.51832 1972 ft 154 kts 268°
2026-04-22 18:40 48.12021 16.50155 2296 ft 180 kts 258°
2026-04-22 18:41 48.11649 16.48223 2460 ft 207 kts 263°
2026-04-22 18:41 48.11461 16.45986 2764 ft 226 kts 274°
2026-04-22 18:41 48.11599 16.43579 3344 ft 240 kts 284°
2026-04-22 18:41 48.11976 16.41055 4098 ft 253 kts 288°
2026-04-22 18:42 48.12377 16.38463 5192 ft 258 kts 286°
2026-04-22 18:42 48.12736 16.35820 6309 ft 261 kts 285°
2026-04-22 18:42 48.13054 16.33157 7319 ft 266 kts 283°
2026-04-22 18:42 48.13362 16.30355 8332 ft 272 kts 283°
2026-04-22 18:43 48.13654 16.27571 9352 ft 277 kts 283°
2026-04-22 18:43 48.13955 16.24656 10342 ft 284 kts 283°
2026-04-22 18:43 48.14509 16.21789 10812 ft 300 kts 302°
2026-04-22 18:43 48.15862 16.19341 11184 ft 316 kts 325°
2026-04-22 18:44 48.17794 16.17703 11907 ft 322 kts 335°
2026-04-22 18:44 48.19790 16.16138 12844 ft 327 kts 335°
2026-04-22 18:44 48.21814 16.14533 13711 ft 333 kts 335°
2026-04-22 18:44 48.23872 16.12906 14089 ft 335 kts 335°
2026-04-22 18:45 48.25940 16.11279 14207 ft 335 kts 335°
2026-04-22 18:45 48.28020 16.09652 14421 ft 339 kts 336°
2026-04-22 18:45 48.30122 16.08010 15204 ft 342 kts 336°
2026-04-22 18:45 48.32278 16.06328 15772 ft 354 kts 336°
2026-04-22 18:46 48.34475 16.04611 16519 ft 359 kts 336°
2026-04-22 18:46 48.36703 16.02865 17290 ft 363 kts 336°
2026-04-22 18:46 48.38952 16.01101 18050 ft 367 kts 336°
2026-04-22 18:46 48.41232 15.99313 18765 ft 372 kts 336°
2026-04-22 18:47 48.43534 15.97504 19418 ft 376 kts 336°
2026-04-22 18:47 48.45873 15.95665 20026 ft 381 kts 336°
2026-04-22 18:47 48.48238 15.93804 20641 ft 386 kts 337°
2026-04-22 18:47 48.50630 15.91921 21266 ft 390 kts 337°
2026-04-22 18:48 48.52234 15.90656 21673 ft 394 kts 337°
2026-04-22 18:48 48.54672 15.88732 22284 ft 398 kts 337°
2026-04-22 18:48 48.57139 15.86783 22885 ft 403 kts 337°
2026-04-22 18:48 48.59641 15.84805 23481 ft 408 kts 337°
2026-04-22 18:49 48.62166 15.82807 23986 ft 413 kts 338°
2026-04-22 18:49 48.64722 15.80781 24180 ft 416 kts 338°
2026-04-22 18:49 48.67295 15.78739 24521 ft 419 kts 338°
2026-04-22 18:49 48.69892 15.76675 24979 ft 424 kts 338°
2026-04-22 18:50 48.72518 15.74586 25417 ft 429 kts 338°
2026-04-22 18:50 48.75177 15.72469 25859 ft 434 kts 338°
2026-04-22 18:50 48.77856 15.70332 26295 ft 438 kts 338°
2026-04-22 18:50 48.80569 15.68168 26719 ft 442 kts 339°
2026-04-22 18:51 48.83306 15.65980 27136 ft 447 kts 339°
2026-04-22 18:51 48.86066 15.63772 27534 ft 451 kts 339°
2026-04-22 18:51 48.88858 15.61559 27926 ft 453 kts 341°
2026-04-22 18:51 48.91736 15.59627 28295 ft 454 kts 343°
2026-04-22 18:52 48.94649 15.57707 28672 ft 458 kts 343°
2026-04-22 18:52 48.97583 15.55766 29036 ft 462 kts 343°
2026-04-22 18:52 49.00539 15.53805 29374 ft 466 kts 344°
2026-04-22 18:52 49.03520 15.51824 29724 ft 469 kts 344°
2026-04-22 18:53 49.06527 15.49824 30012 ft 473 kts 344°
2026-04-22 18:53 49.09566 15.47802 30152 ft 480 kts 344°
2026-04-22 18:53 49.15767 15.43666 30335 ft 491 kts 343°
2026-04-22 18:54 49.18900 15.41566 30567 ft 490 kts 343°
2026-04-22 18:54 49.22019 15.39470 30862 ft 489 kts 343°
2026-04-22 18:54 49.25129 15.37380 31165 ft 488 kts 343°
2026-04-22 18:54 49.28232 15.35294 31494 ft 486 kts 343°
2026-04-22 18:55 49.31280 15.33245 31814 ft 484 kts 343°
2026-04-22 18:55 49.34361 15.31173 32119 ft 483 kts 342°
2026-04-22 18:55 49.37473 15.29077 32431 ft 481 kts 342°
2026-04-22 18:55 49.40534 15.27012 32728 ft 480 kts 342°
2026-04-22 18:56 49.43546 15.24978 33021 ft 479 kts 342°
2026-04-22 18:56 49.46589 15.22918 33313 ft 478 kts 342°
2026-04-22 18:56 49.49624 15.20862 33589 ft 476 kts 342°
2026-04-22 18:56 49.52655 15.18805 33858 ft 475 kts 342°
2026-04-22 18:57 49.55678 15.16749 34141 ft 474 kts 342°
2026-04-22 18:57 49.58694 15.14697 34385 ft 473 kts 342°
2026-04-22 18:57 49.61702 15.12646 34593 ft 473 kts 342°
2026-04-22 18:57 49.64715 15.10590 34786 ft 472 kts 342°
2026-04-22 18:58 49.67717 15.08538 34965 ft 472 kts 341°
2026-04-22 18:58 49.70726 15.06520 35164 ft 470 kts 344°
2026-04-22 18:58 49.73788 15.04811 35354 ft 468 kts 346°
2026-04-22 18:58 49.76849 15.03118 35533 ft 468 kts 345°
2026-04-22 18:59 49.79910 15.01416 35695 ft 468 kts 345°
2026-04-22 18:59 49.82970 14.99710 35878 ft 467 kts 345°
2026-04-22 18:59 49.86031 14.98000 36056 ft 467 kts 345°
2026-04-22 18:59 49.89088 14.96291 36209 ft 467 kts 345°
2026-04-22 19:00 49.95195 14.92869 36259 ft 466 kts 345°
2026-04-22 19:00 50.01301 14.89439 36255 ft 467 kts 345°
2026-04-22 19:01 50.07406 14.86000 36260 ft 467 kts 345°
2026-04-22 19:01 50.13515 14.82551 36256 ft 467 kts 345°
2026-04-22 19:02 50.19630 14.79088 36258 ft 468 kts 345°
2026-04-22 19:02 50.25749 14.75613 36259 ft 468 kts 345°
2026-04-22 19:03 50.31864 14.72131 36261 ft 468 kts 345°
2026-04-22 19:03 50.37952 14.68655 36259 ft 468 kts 345°
2026-04-22 19:04 50.44079 14.65146 36261 ft 469 kts 345°
2026-04-22 19:04 50.50199 14.61630 36264 ft 469 kts 345°
2026-04-22 19:05 50.56333 14.58098 36267 ft 470 kts 345°
2026-04-22 19:05 50.62476 14.54552 36265 ft 470 kts 345°
2026-04-22 19:06 50.68616 14.50997 36268 ft 470 kts 345°
2026-04-22 19:07 50.77836 14.45639 36271 ft 471 kts 345°
2026-04-22 19:07 50.83992 14.42050 36274 ft 472 kts 345°
2026-04-22 19:08 50.90103 14.38234 36272 ft 477 kts 339°
2026-04-22 19:08 50.95797 14.32644 36268 ft 487 kts 327°
2026-04-22 19:09 51.00977 14.25618 36268 ft 490 kts 324°
2026-04-22 19:09 51.06150 14.18540 36268 ft 491 kts 324°
2026-04-22 19:10 51.11315 14.11420 36265 ft 492 kts 324°
2026-04-22 19:10 51.16472 14.04270 36269 ft 492 kts 324°
2026-04-22 19:11 51.21635 13.97088 36267 ft 493 kts 324°
2026-04-22 19:11 51.26762 13.89934 36273 ft 493 kts 324°
2026-04-22 19:12 51.31920 13.82717 36261 ft 494 kts 324°
2026-04-22 19:12 51.37086 13.75464 36279 ft 494 kts 324°
2026-04-22 19:13 51.42249 13.68193 36271 ft 495 kts 324°
2026-04-22 19:13 51.47420 13.60891 36280 ft 495 kts 324°
2026-04-22 19:14 51.52590 13.53571 36280 ft 496 kts 324°
2026-04-22 19:14 51.57837 13.46411 36274 ft 496 kts 324°
2026-04-22 19:15 51.62207 13.40326 36267 ft 496 kts 325°
2026-04-22 19:15 51.68318 13.31976 36265 ft 496 kts 325°
2026-04-22 19:16 51.73602 13.24808 36262 ft 496 kts 325°
2026-04-22 19:16 51.78885 13.17624 36265 ft 497 kts 325°
2026-04-22 19:17 51.84170 13.10414 36263 ft 497 kts 325°
2026-04-22 19:17 51.89456 13.03177 36268 ft 497 kts 325°
2026-04-22 19:18 51.94740 12.95921 36274 ft 498 kts 325°
2026-04-22 19:18 52.00020 12.88647 36282 ft 498 kts 325°
2026-04-22 19:19 52.05315 12.81329 36285 ft 499 kts 325°
2026-04-22 19:19 52.10578 12.74031 36284 ft 499 kts 325°
2026-04-22 19:20 52.15854 12.66691 36288 ft 499 kts 325°
2026-04-22 19:20 52.21128 12.59331 36293 ft 499 kts 325°
2026-04-22 19:21 52.26399 12.51951 36292 ft 500 kts 325°
2026-04-22 19:21 52.31588 12.44649 36295 ft 479 kts 325°
2026-04-22 19:22 52.36548 12.37658 36296 ft 477 kts 325°
2026-04-22 19:22 52.41587 12.30550 36300 ft 478 kts 325°
2026-04-22 19:23 52.46606 12.23432 36219 ft 475 kts 325°
2026-04-22 19:23 52.49104 12.19879 35750 ft 475 kts 325°
2026-04-22 19:23 52.51609 12.16312 34970 ft 480 kts 326°
2026-04-22 19:23 52.54146 12.12699 34012 ft 486 kts 326°
2026-04-22 19:24 52.56709 12.09046 33194 ft 487 kts 325°
2026-04-22 19:24 52.59259 12.05399 32475 ft 485 kts 325°
2026-04-22 19:24 52.61800 12.01759 31748 ft 484 kts 324°
2026-04-22 19:24 52.64337 11.98126 31001 ft 482 kts 325°
2026-04-22 19:25 52.66945 11.94684 30316 ft 479 kts 326°
2026-04-22 19:25 52.69500 11.91209 29684 ft 473 kts 324°
2026-04-22 19:25 52.72018 11.87769 29065 ft 467 kts 324°
2026-04-22 19:25 52.74512 11.84395 28446 ft 461 kts 325°
2026-04-22 19:26 52.76979 11.81085 27857 ft 455 kts 325°
2026-04-22 19:26 52.79423 11.77823 27289 ft 449 kts 324°
2026-04-22 19:26 52.81835 11.74606 26711 ft 443 kts 324°
2026-04-22 19:26 52.84219 11.71425 26162 ft 437 kts 324°
2026-04-22 19:27 52.86572 11.68281 25617 ft 432 kts 324°
2026-04-22 19:27 52.88895 11.65173 25093 ft 426 kts 323°
2026-04-22 19:27 52.91183 11.62107 24590 ft 420 kts 323°
2026-04-22 19:27 52.93431 11.59087 24364 ft 413 kts 323°
2026-04-22 19:28 52.95668 11.56082 24304 ft 418 kts 323°
2026-04-22 19:28 52.97927 11.53041 24297 ft 418 kts 323°
2026-04-22 19:28 53.00189 11.49991 24296 ft 419 kts 323°
2026-04-22 19:28 53.02443 11.46946 24298 ft 418 kts 323°
2026-04-22 19:29 53.04702 11.43891 24304 ft 418 kts 323°
2026-04-22 19:29 53.06959 11.40835 24306 ft 419 kts 323°
2026-04-22 19:29 53.09208 11.37785 24248 ft 416 kts 323°
2026-04-22 19:29 53.11447 11.34743 23959 ft 413 kts 323°
2026-04-22 19:30 53.12917 11.32744 23643 ft 410 kts 322°
2026-04-22 19:30 53.15850 11.28747 22848 ft 405 kts 322°
2026-04-22 19:30 53.18014 11.25793 22215 ft 399 kts 322°
2026-04-22 19:30 53.20139 11.22887 21366 ft 392 kts 322°
2026-04-22 19:31 53.22237 11.20015 20526 ft 387 kts 322°
2026-04-22 19:31 53.24297 11.17192 19714 ft 381 kts 322°
2026-04-22 19:31 53.26330 11.14403 18939 ft 375 kts 322°
2026-04-22 19:31 53.28328 11.11658 18106 ft 370 kts 322°
2026-04-22 19:32 53.30301 11.08945 17230 ft 365 kts 323°
2026-04-22 19:32 53.32249 11.06264 16398 ft 360 kts 323°
2026-04-22 19:32 53.34166 11.03620 15584 ft 355 kts 323°
2026-04-22 19:32 53.36062 11.01003 14786 ft 351 kts 323°
2026-04-22 19:33 53.37933 10.98418 13998 ft 347 kts 323°
2026-04-22 19:33 53.39779 10.95864 13201 ft 342 kts 323°
2026-04-22 19:33 53.40987 10.94192 12693 ft 338 kts 323°
2026-04-22 19:33 53.42785 10.91702 11934 ft 332 kts 323°
2026-04-22 19:34 53.44551 10.89253 11184 ft 327 kts 322°
2026-04-22 19:34 53.46291 10.86838 10579 ft 320 kts 322°
2026-04-22 19:34 53.47970 10.84502 10366 ft 307 kts 322°
2026-04-22 19:34 53.49578 10.82261 10257 ft 294 kts 322°
2026-04-22 19:35 53.51117 10.80115 10138 ft 280 kts 323°
2026-04-22 19:35 53.52572 10.78084 9971 ft 262 kts 323°
2026-04-22 19:35 53.53927 10.76189 9817 ft 245 kts 323°
2026-04-22 19:35 53.55582 10.73875 9611 ft 224 kts 323°
2026-04-22 19:36 53.56380 10.72760 9391 ft 219 kts 323°
2026-04-22 19:36 53.57553 10.71125 8856 ft 222 kts 323°
2026-04-22 19:36 53.58778 10.69422 8255 ft 233 kts 323°
2026-04-22 19:36 53.60015 10.67696 7904 ft 234 kts 322°
2026-04-22 19:37 53.61269 10.65936 7703 ft 229 kts 322°
2026-04-22 19:37 53.62494 10.64217 7582 ft 234 kts 322°
2026-04-22 19:37 53.63721 10.62445 7452 ft 232 kts 316°
2026-04-22 19:37 53.64658 10.60165 7336 ft 235 kts 304°
2026-04-22 19:38 53.65485 10.57854 7136 ft 232 kts 304°
2026-04-22 19:38 53.66320 10.55525 6775 ft 232 kts 304°
2026-04-22 19:38 53.67152 10.53207 6388 ft 231 kts 304°
2026-04-22 19:38 53.67983 10.50901 5995 ft 229 kts 304°
2026-04-22 19:39 53.68810 10.48613 5635 ft 227 kts 304°
2026-04-22 19:39 53.69630 10.46353 5278 ft 225 kts 304°
2026-04-22 19:39 53.70441 10.44123 4992 ft 221 kts 304°
2026-04-22 19:39 53.70978 10.42655 4729 ft 223 kts 304°
2026-04-22 19:40 53.72078 10.39704 4111 ft 221 kts 304°
2026-04-22 19:40 53.72902 10.37533 3652 ft 219 kts 304°
2026-04-22 19:40 53.73728 10.35394 3194 ft 216 kts 304°
2026-04-22 19:40 53.74552 10.33282 2931 ft 214 kts 304°
2026-04-22 19:41 53.75381 10.31159 2987 ft 217 kts 304°
2026-04-22 19:41 53.76188 10.29005 2985 ft 217 kts 295°
2026-04-22 19:41 53.76309 10.26480 2994 ft 226 kts 256°
2026-04-22 19:41 53.75543 10.24162 2993 ft 227 kts 235°
2026-04-22 19:42 53.74506 10.22134 2997 ft 230 kts 231°
2026-04-22 19:42 53.73507 10.20117 2988 ft 221 kts 233°
2026-04-22 19:42 53.72545 10.18168 2888 ft 208 kts 233°
2026-04-22 19:42 53.71651 10.16344 2615 ft 199 kts 234°
2026-04-22 19:43 53.70019 10.13021 2124 ft 174 kts 234°
2026-04-22 19:43 53.69251 10.11454 1875 ft 169 kts 234°
2026-04-22 19:43 53.68536 10.10008 1656 ft 151 kts 235°
2026-04-22 19:44 53.67907 10.08729 1461 ft 134 kts 237°
2026-04-22 19:44 53.67340 10.07574 1272 ft 126 kts 237°
2026-04-22 19:44 53.66773 10.06415 1102 ft 127 kts 237°
2026-04-22 19:44 53.66218 10.05293 916 ft 122 kts 237°
2026-04-22 19:45 53.65671 10.04174 741 ft 123 kts 235°
2026-04-22 19:45 53.65130 10.03080 579 ft 121 kts 235°
2026-04-22 19:45 53.64587 10.01970 397 ft 123 kts 236°
2026-04-22 19:45 53.64049 10.00859 213 ft 120 kts 232°
2026-04-22 19:46 53.63511 9.99779 67 ft 121 kts 230°
2026-04-22 19:46 53.63035 9.98811 45 ft 76 kts 229°
2026-04-22 19:46 53.62851 9.98504 41 ft 20 kts 203°
2026-04-22 19:46 53.62731 9.98477 45 ft 11 kts 168°
2026-04-22 19:47 53.62706 9.98571 46 ft 11 kts 63°
2026-04-22 19:47 53.62760 9.98695 46 ft 15 kts 50°
2026-04-22 19:47 53.62837 9.98848 46 ft 19 kts 50°
2026-04-22 19:47 53.62905 9.98987 46 ft 16 kts 50°
2026-04-22 19:48 53.62977 9.99132 46 ft 15 kts 50°
2026-04-22 19:48 53.63051 9.99291 46 ft 19 kts 52°
2026-04-22 19:48 53.63135 9.99478 46 ft 19 kts 53°
2026-04-22 19:48 53.63193 9.99613 47 ft 9 kts 52°
2026-04-22 19:49 53.63211 9.99649 48 ft 1 kts 47°
2026-04-22 19:49 53.63219 9.99663 48 ft 3 kts 47°
2026-04-22 19:49 53.63245 9.99709 48 ft 8 kts 44°
2026-04-22 19:49 53.63295 9.99792 48 ft 12 kts 49°
2026-04-22 19:50 53.63357 9.99920 48 ft 15 kts 50°
2026-04-22 19:50 53.63413 10.00033 48 ft 9 kts 49°
2026-04-22 19:50 53.63422 10.00144 47 ft 12 kts 116°
2026-04-22 19:50 53.63375 10.00190 48 ft 3 kts 167°
2026-04-22 19:51 53.63342 10.00203 47 ft 5 kts 155°
2026-04-22 19:51 53.63330 10.00230 48 ft 2 kts 114°
2026-04-22 19:51 53.63328 10.00277 48 ft 4 kts 88°
2026-04-22 19:51 53.63329 10.00305 48 ft 3 kts 83°
2026-04-22 19:52 53.63331 10.00331 48 ft 0 kts 90°
2026-04-22 19:52 53.63332 10.00346 48 ft 1 kts 88°